Location: Chevoux
(46.3801°N, 4.9476°E)
Time: 12:10:10
(UTC+00:00)

Cosmos 990 Rocket - Pass Details

Date: 28 January 2021
Orbit: 747 x 768 km, 74.0° (Epoch: 07 March)

Event Time Altitude Azimuth Distance (km) Brightness Sun altitude
Rises 17:32:21 0° 202° (SSW) 3,207 7.8 -9.4°
Reaches altitude 10° 17:34:43 10° 203° (SSW) 2,283 7.0 -9.8°
Maximum altitude 17:39:54 82° 292° (WNW) 768 4.1 -10.7°
Drops below altitude 10° 17:45:06 10° 20° (NNE) 2,286 6.1 -11.6°
Sets 17:47:28 0° 22° (NNE) 3,212 6.9 -12.0°
